#timestamp,LO_Frequency,Hit,StdDev 
1514412015.7,286047013.4,Y
1514412035.5,286047004.4,P
1514412055.4,286047003.6,N
1514412075.2,286047001.9,N
1514412095.0,286047001.6,N
1514412095.9,286047001.6,N
1514412115.7,286047002.5,N
1514412135.6,286047000.1,N
1514412155.4,286046996.7,N
1514412175.2,286047002.7,N
1514412195.1,286047002.8,N
1514412196.0,286047002.8,N
1514412215.8,286047001.2,N
1514412235.6,286046999.8,N
1514412255.5,286047003.0,N
1514412275.3,286047007.1,N
1514412295.1,286047008.5,Y
1514412315.9,286047005.0,P
1514412335.7,286047002.0,N
1514412355.5,286046999.7,N
1514412375.4,286047002.0,N
1514412395.2,286047004.0,N
1514412415.0,286047003.0,N
1514412415.9,286047003.0,N
1514412435.8,286047006.1,Y
1514412455.6,286047010.3,P
1514412475.4,286047011.0,N
1514412495.3,286047012.8,P
1514412515.1,286047015.3,Y
1514412535.8,286047005.3,P
1514412555.7,286047005.5,N
1514412575.5,286047006.3,P
1514412595.3,286047010.8,Y
1514412615.2,286047003.0,P
1514412635.9,286047003.3,N
1514412655.7,286047008.8,P
1514412675.6,286047009.3,Y
1514412695.4,286047010.7,P
1514412715.2,286047014.0,P
1514412735.1,286047014.7,P
1514412736.0,286047014.7,Y
1514412755.8,286047005.4,P
1514412775.6,286047006.9,N
1514412795.5,286047008.7,P
1514412815.3,286047009.0,Y
1514412835.1,286047001.8,P
1514412855.9,286047007.6,N
1514412875.7,286047008.4,N
1514412895.5,286047009.7,Y
1514412915.4,286047005.2,P
1514412935.2,286047006.4,P
1514412955.0,286047010.6,P
1514412955.9,286047010.6,Y
1514412975.8,286047004.5,P
1514412995.6,286047006.5,P
1514413015.4,286047013.9,P
1514413035.3,286047013.3,Y
1514413055.1,286047007.7,P
1514413075.8,286047010.4,P
1514413095.7,286047008.9,P
1514413115.5,286047010.6,Y
1514413135.3,286047000.5,P
1514413155.2,286046994.9,N
1514413175.9,286046999.1,N
1514413195.7,286046999.0,N
1514413215.6,286047000.2,N
1514413235.4,286047001.9,N
1514413255.2,286047002.8,N
1514413275.1,286047002.1,N
1514413276.0,286047002.1,N
1514413295.8,286047002.4,N
1514413315.6,286046999.8,N
1514413335.4,286047003.6,N
1514413355.3,286047003.1,N
1514413375.1,286047002.8,N
1514413395.8,286046998.5,N
1514413415.7,286046999.2,N
1514413435.5,286046999.0,N
1514413455.3,286046995.0,N
1514413475.2,286046995.0,N
1514413495.9,286046997.4,N
1514413515.7,286046998.0,N
1514413535.6,286046995.1,N
1514413555.4,286046992.0,N
1514413575.2,286046993.9,N
1514413595.1,286046991.7,N
1514413596.0,286046991.7,N
1514413615.8,286046990.8,N
1514413635.6,286046989.2,N
1514413655.4,286046988.0,N
1514413675.3,286046984.7,Y
1514413695.1,286046980.8,P
1514413715.8,286046978.3,N
1514413735.7,286046973.9,N
1514413755.5,286046971.6,Y
1514413775.4,286046985.3,P
1514413795.2,286046985.5,P
1514413815.0,286046982.2,P
1514413815.9,286046982.2,Y
1514413835.8,286046995.1,P
1514413855.6,286046994.3,N
1514413875.4,286046989.2,N
1514413895.3,286046986.3,Y
1514413915.1,286046995.1,P
1514413916.0,286046995.1,N
1514413935.8,286046995.8,N
1514413955.7,286046995.2,N
1514413975.5,286046992.8,Y
1514413995.3,286046993.7,P
1514414015.2,286046993.0,P
1514414035.9,286046989.0,P
1514414055.7,286046987.2,Y
1514414075.6,286046994.4,P
1514414095.4,286046990.9,P
1514414115.2,286046989.0,P
1514414135.1,286046987.1,Y
1514414136.0,286046987.1,P
1514414155.8,286046997.0,N
1514414175.6,286046994.9,N
1514414195.5,286046996.5,N
1514414215.3,286047000.4,N
1514414235.1,286047002.1,N
1514414255.8,286047002.6,N
1514414275.7,286047002.3,N
1514414295.5,286047000.8,N
1514414315.3,286047002.5,N
1514414335.2,286047002.6,N
1514414355.9,286047001.9,N
1514414375.7,286047005.1,N
1514414395.6,286047003.1,N
1514414415.4,286047004.0,N
1514414435.2,286047004.1,N
1514414455.1,286047006.1,N
1514414456.0,286047006.1,N
1514414475.8,286047009.6,N
1514414495.6,286047010.5,N
1514414515.4,286047008.3,N
1514414535.3,286047012.3,N
1514414555.1,286047011.7,N
1514414575.8,286047014.9,N
1514414595.7,286047019.4,Y
1514414615.5,286047023.1,P
1514414635.3,286047025.3,N
1514414655.2,286047024.9,N
1514414675.0,286047022.9,N
1514414675.9,286047022.9,N
1514414695.8,286047024.5,Y
1514414715.6,286047005.7,P
1514414735.4,286047005.4,N
1514414755.2,286047005.0,N
1514414775.1,286047009.2,N
1514414776.0,286047009.2,N
1514414795.8,286047004.7,N
1514414815.6,286047003.1,N
1514414835.5,286047003.6,N
1514414855.3,286047003.2,N
1514414875.1,286047004.3,N
1514414895.9,286047007.6,N
1514414915.7,286047006.1,N
1514414935.5,286047009.7,N
1514414955.4,286047011.3,N
1514414975.2,286047014.1,Y
1514414995.0,286047009.6,P
1514414995.9,286047009.6,P
1514415015.8,286047010.5,P
1514415035.6,286047010.9,Y
1514415055.4,286047001.7,P
1514415075.3,286047004.1,N
1514415095.1,286047004.4,N
1514415096.0,286047004.4,N
1514415115.8,286047004.0,N
1514415135.7,286047001.6,N
1514415155.5,286047003.9,N
1514415175.3,286047001.4,N
1514415195.1,286047002.7,N
1514415215.9,286047003.4,N
1514415235.7,286047005.9,N
1514415255.5,286047000.1,N
1514415275.4,286046998.3,N
1514415295.2,286046999.6,N
1514415315.0,286046993.5,N
1514415315.9,286046993.5,N
1514415335.8,286046996.1,N
1514415355.6,286046994.3,N
1514415375.4,286046991.7,N
1514415395.3,286046993.8,N
1514415415.1,286046992.1,N
1514415416.0,286046992.1,N
1514415435.8,286046993.9,N
1514415455.7,286046995.7,N
1514415475.5,286046999.5,N
1514415495.3,286047001.1,N
1514415515.1,286047000.9,N
1514415535.9,286046997.2,N
1514415555.7,286046997.0,N
1514415575.5,286047002.4,N
1514415595.4,286046998.4,N
